Location: Ceske Budejovice
(48.9830°N, 14.4670°E)
Time: 23:49:52
(UTC+02:00)

DX 1 - Pass Details

Date: 28 August 2019
Orbit: 620 x 630 km, 98.4° (Epoch: 18 September)

Event Time Altitude Azimuth Distance (km) Brightness Sun altitude
Rises 03:57:55 0° 150° (SSE) 2,886 ? -19.8°
Reaches altitude 10° 04:00:07 10° 145° (SE) 1,985 ? -19.6°
Maximum altitude 04:04:18 52° 70° (ENE) 782 ? -19.1°
Drops below altitude 10° 04:08:32 10° 355° (N) 2,005 ? -18.6°
Sets 04:10:46 0° 350° (N) 2,918 ? -18.3°
